[[[{"header":{"parameterUnit":"kt","parameterCategory":2,"dx":1,"dy":1,"la1":30.253999710083008,"la2":30.299108505249023,"lo1":-89.0895004272461,"lo2":-89.04439544677734,"nx":28,"ny":28,"refTime":"2022-10-12T21:00:00:Z","depth":0,"parameterNumber":1,"parameterNumberName":"U-component_of_WINDS"},"data":[1.0694,1.0773,1.079,1.0889,1.0922,1.0993,1.1024,1.1067,1.1106,1.1194,1.1248,1.1276,1.1323,1.1394,1.1456,1.1467,1.1492,1.1507,1.1518,1.1432,1.1421,1.1411,1.1393,1.1512,1.1512,1.1605,1.1606,1.1607,1.0632,1.0665,1.0722,1.0789,1.0838,1.0834,1.0888,1.093,1.0994,1.1043,1.1097,1.1177,1.1243,1.1286,1.1353,1.1392,1.1395,1.141,1.1407,1.1415,1.1324,1.1304,1.1406,1.1406,1.1406,1.1406,1.1406,1.1406,1.0524,1.057,1.0621,1.0682,1.0721,1.0766,1.0814,1.0845,1.0902,1.0972,1.0983,1.1056,1.1109,1.1199,1.1234,1.1293,1.1281,1.1303,1.1308,1.1314,1.1318,1.1184,1.1305,1.1305,1.1305,1.1305,1.1305,0,1.0451,1.0462,1.0517,1.0578,1.0624,1.0673,1.0721,1.0751,1.0782,1.0828,1.0896,1.0939,1.1023,1.1091,1.1158,1.119,1.1192,1.1194,1.1209,1.1206,1.1194,1.1203,1.1054,1.119,1.119,1.1189,1.1188,1.1188,1.0344,1.0395,1.0456,1.0492,1.0522,1.0581,1.062,1.0643,1.0683,1.0747,1.0787,1.0854,1.0909,1.1017,1.1054,1.1119,1.1121,1.1171,1.113,1.1125,1.1123,1.112,1.1127,1.1178,1.118,1.1181,1.1181,0,1.0283,1.031,1.0395,1.045,1.0465,1.0518,1.0566,1.0614,1.0638,1.0708,1.0725,1.0765,1.0832,1.0862,1.0944,1.0958,1.105,1.1049,1.1032,1.1034,1.1083,1.1079,1.1235,1.1258,1.1133,1.1134,1.1135,0,1.0203,1.0269,1.0306,1.0354,1.0429,1.0449,1.0523,1.0552,1.0596,1.065,1.0656,1.0708,1.0736,1.0793,1.0813,1.0893,1.0908,1.0924,1.0929,1.0924,1.0922,1.0947,1.0942,1.0935,1.0934,1.0934,1.0933,0,1.0105,1.0201,1.0278,1.0305,1.037,1.0406,1.0435,1.0484,1.0522,1.0576,1.0601,1.0663,1.0697,1.0746,1.0771,1.0742,1.0869,1.0835,1.0885,1.0885,1.0912,1.091,1.104,1.0932,1.0932,1.0932,1.0931,0,1.0045,1.0096,1.0203,1.0258,1.0282,1.0333,1.0394,1.0444,1.0496,1.0511,1.0554,1.0561,1.0631,1.0596,1.0695,1.0651,1.0685,1.0706,1.071,1.0719,1.0678,1.0749,1.0869,1.0883,1.0727,1.0725,1.0723,0,0.9926,1.004,1.0058,1.0159,1.0216,1.0218,1.0275,1.032,1.0345,1.0398,1.0426,1.0486,1.0466,1.0489,1.0533,1.0565,1.0623,1.0558,1.0639,1.0641,1.0626,1.0736,1.0747,1.0839,1.0702,1.0704,1.0706,0,0.9837,0.9913,0.9929,0.9961,1.0021,1.0068,1.0134,1.0197,1.0232,1.0281,1.0337,1.0423,1.0411,1.0449,1.0461,1.0506,1.0585,1.0488,1.0489,1.0506,1.0693,1.0703,1.0718,1.0583,1.0586,1.0588,1.0689,0,0.9742,0.9802,0.9847,0.9914,0.9955,1.0019,1.0047,1.0087,1.0094,1.0118,1.0201,1.0245,1.0311,1.0335,1.0342,1.0435,1.0425,1.0411,1.0379,1.0451,1.0485,1.0499,1.0326,1.0325,1.0325,1.0324,0,0,0.9622,0.9708,0.9724,0.9787,0.9822,0.9822,0.9889,0.9924,0.9993,1.0019,1.0001,1.0127,1.0163,1.0262,1.0286,1.0312,1.0333,1.0306,1.0416,1.0426,1.0436,1.0471,1.0485,1.0323,1.0323,1.0323,1.0322,0,0.9593,0.9627,0.9691,0.9727,0.9781,0.9802,0.9818,0.9872,0.989,0.997,0.997,1.0024,1.0123,1.0162,1.0195,1.0295,1.0292,1.0312,1.0357,1.0408,1.0419,1.0429,1.0466,1.0479,1.0321,1.0321,1.0321,0,0.9511,0.9549,0.9583,0.9661,0.9696,0.9754,0.9727,0.9789,0.9833,0.983,0.991,0.9938,0.9993,1.0081,1.0121,1.0106,1.0254,1.0212,1.0217,1.0222,1.0274,1.0287,1.0299,1.0145,1.0144,1.0144,0,0,0.9482,0.9537,0.9585,0.9657,0.9679,0.9711,0.9744,0.9754,0.9801,0.982,0.9856,0.9904,0.9962,1.0,1.0056,1.0148,1.0163,1.0189,1.0197,1.0204,1.0213,1.0266,1.0279,1.0141,1.0141,1.0141,0,0,0.9469,0.9527,0.9524,0.961,0.9655,0.9708,0.9751,0.975,0.9803,0.9799,0.9819,0.9833,0.9916,0.9943,0.9903,1.0046,1.0013,1.0023,1.0024,1.0035,1.0043,1.0035,0.9882,0,0,0,0,0,0.9452,0.9519,0.9517,0.9535,0.9634,0.9709,0.9722,0.9739,0.9716,0.9751,0.978,0.9775,0.9926,0.9891,0.991,0.9955,1.0105,1.0112,1.0118,1.0141,1.0152,1.0161,0,0,0,0,0,0,0.946,0.9482,0.9515,0.957,0.9592,0.9706,0.9671,0.9678,0.9713,0.9711,0.9769,0.9777,0.9794,0.9882,0.9899,0.9942,0.9876,1.0108,1.0113,1.0118,1.0144,1.0153,1.0161,0,0,0,0,0,0.9466,0.9484,0.9637,0.9569,0.9589,0.9628,0.9669,0.9674,0.9702,0.9748,0.9755,0.9712,0.9795,0.981,0.9893,0.9934,0.9865,0.9871,1.0111,1.0116,1.0119,1.0149,0,0,0,0,0,0,0.947,0.949,0.9642,0.9648,0.9545,0.9622,0.9635,0.9671,0.9737,0.9745,0.9691,0.9688,0.9796,0.9808,0.982,0.993,0.9856,0.9862,0.9866,1.0114,1.0118,1.0121,0,0,0,0,0,0,0.948,0.9496,0.9645,0.9613,0.9616,0.9617,0.9628,0.97,0.9738,0.9676,0.9676,0.9689,0.9779,0.9807,0.9816,0.9928,0.9848,0.9854,0.9859,0.9861,1.0117,1.012,0,0,0,0,0,0,0.9487,0.95,0.9611,0.9614,0.9617,0.9693,0.9681,0.9782,0.9709,0.9674,0.9703,0.97,0.9778,0.9788,0.9813,0.9921,0.9926,0.9849,0.9853,0.9856,0.9858,0,0,0,0,0,0,0,0.9493,0.94,0.9602,0.9615,0.9617,0.971,0.9712,0.9714,0.9708,0.9706,0.9703,0.9701,0.9814,0.9821,0.9827,0.9916,0,0,0.9848,0.9851,0,0,0,0,0,0,0,0,0.9395,0.9399,0.9602,0.9603,0.9605,0.971,0.9712,0.9713,0.9708,0.9706,0.9704,0.9702,0.9816,0.9821,0.9827,0,0,0,0,0,0,0,0,0,0,0,0,0,0,0,0.9602,0.9603,0,0.971,0.9712,0.9713,0.9707,0.9706,0.9704,0.9703,0.9817,0.9822,0.9826,0,0,0,0,0,0,0,0,0,0,0,0,0,0,0,0,0,0,0,0,0,0,0,0,0,0,0,0,0,0,0,0,0,0,0,0,0,0,0,0,0,0,0,0,0,0,0,0,0,0,0,0,0,0,0,0,0,0,0,0,0,0,0,0,0,0,0,0,0]}],[{"header":{"parameterUnit":"kt","parameterCategory":2,"dx":1,"dy":1,"la1":30.253999710083008,"la2":30.299108505249023,"lo1":-89.0895004272461,"lo2":-89.04439544677734,"nx":28,"ny":28,"refTime":"2022-10-12T21:00:00:Z","depth":0,"parameterNumber":2,"parameterNumberName":"V-component_of_WINDS"},"data":[2.615,2.6225,2.6248,2.6345,2.6382,2.6453,2.6486,2.6531,2.6574,2.6663,2.672,2.6752,2.6806,2.688,2.6944,2.6958,2.6984,2.6993,2.7008,2.694,2.6932,2.6925,2.6908,2.6998,2.6998,2.7076,2.7077,2.7077,2.6101,2.6137,2.6195,2.6266,2.6316,2.632,2.6378,2.642,2.6485,2.6537,2.6593,2.6675,2.6743,2.6794,2.6864,2.6903,2.691,2.692,2.6919,2.6928,2.6855,2.6837,2.6913,2.6913,2.6913,2.6913,2.6913,2.6913,2.6017,2.606,2.6116,2.6179,2.6221,2.6269,2.6315,2.6353,2.6411,2.6484,2.6502,2.6575,2.6634,2.6731,2.6769,2.6829,2.6822,2.6842,2.6847,2.6852,2.6854,2.6742,2.6842,2.6842,2.6842,2.6842,2.6842,0,2.5962,2.5978,2.6034,2.6097,2.6144,2.6196,2.6248,2.6277,2.632,2.6367,2.6436,2.648,2.6569,2.6638,2.6709,2.6746,2.6757,2.676,2.6774,2.6768,2.6753,2.6764,2.6646,2.6758,2.6757,2.6757,2.6756,2.6756,2.588,2.5928,2.5997,2.6034,2.6067,2.6126,2.6166,2.62,2.6241,2.6311,2.6349,2.6418,2.6475,2.6584,2.663,2.6697,2.6704,2.6744,2.6714,2.6706,2.6707,2.6704,2.671,2.6749,2.675,2.6751,2.6751,0,2.5833,2.5869,2.595,2.6014,2.6032,2.6081,2.6137,2.6183,2.6214,2.6282,2.63,2.6351,2.6419,2.6459,2.6545,2.6564,2.665,2.6654,2.663,2.6634,2.6675,2.6671,2.6799,2.6819,2.6724,2.6724,2.6725,0,2.5778,2.5839,2.589,2.5935,2.6005,2.6037,2.6106,2.614,2.6189,2.6243,2.626,2.6311,2.6353,2.641,2.6438,2.6515,2.6531,2.655,2.6557,2.655,2.6548,2.6574,2.657,2.6569,2.6568,2.6567,2.6567,0,2.57,2.5798,2.5871,2.59,2.5974,2.6009,2.6042,2.6097,2.6136,2.6194,2.622,2.6285,2.6321,2.6372,2.6407,2.6385,2.6501,2.6479,2.6522,2.6521,2.6546,2.6544,2.6646,2.6566,2.6566,2.6566,2.6565,0,2.5661,2.5715,2.5816,2.5878,2.5903,2.5952,2.6017,2.6067,2.6124,2.6144,2.619,2.6207,2.6275,2.625,2.6347,2.6309,2.6344,2.6369,2.6372,2.6382,2.6354,2.6408,2.65,2.6512,2.639,2.6389,2.6387,0,2.5563,2.5673,2.57,2.5795,2.5852,2.5867,2.5922,2.5971,2.6002,2.6056,2.6091,2.6153,2.6142,2.6167,2.6209,2.6248,2.6298,2.6243,2.6324,2.6327,2.631,2.6394,2.6398,2.6475,2.6369,2.6371,2.6372,0,2.5491,2.5579,2.5593,2.5628,2.5696,2.5743,2.5806,2.5873,2.5908,2.5961,2.6016,2.6102,2.6099,2.6139,2.6159,2.6202,2.6265,2.6192,2.6194,2.6205,2.6362,2.6367,2.6379,2.627,2.6272,2.6274,2.6358,0,2.5427,2.5486,2.5527,2.56,2.5642,2.5703,2.5742,2.5782,2.5796,2.5827,2.5908,2.5959,2.6028,2.6052,2.6067,2.615,2.6143,2.6138,2.6117,2.6172,2.6201,2.6212,2.6071,2.6071,2.6071,2.607,0,0,2.5325,2.541,2.5437,2.5498,2.5535,2.555,2.5612,2.565,2.5727,2.5754,2.5742,2.5872,2.5914,2.6008,2.6028,2.6056,2.6075,2.6054,2.6145,2.6153,2.6161,2.6191,2.6202,2.607,2.607,2.607,2.6069,0,2.5309,2.5348,2.5407,2.5448,2.5508,2.5537,2.5551,2.5615,2.5637,2.5715,2.5728,2.5781,2.5883,2.5927,2.5962,2.6043,2.6051,2.6061,2.6092,2.614,2.6149,2.6157,2.6188,2.6198,2.6069,2.6069,2.6069,0,2.5246,2.5291,2.5323,2.5407,2.5447,2.5504,2.5492,2.5553,2.5596,2.561,2.5688,2.5722,2.5783,2.5866,2.5905,2.5896,2.6026,2.5991,2.5994,2.6,2.6049,2.6059,2.6068,2.5949,2.5948,2.5948,0,0,2.5228,2.5282,2.5341,2.5406,2.5431,2.5474,2.5509,2.5526,2.5579,2.5601,2.5644,2.5696,2.5756,2.5795,2.5853,2.5939,2.5955,2.5975,2.5981,2.5985,2.5993,2.6043,2.6053,2.5945,2.5945,2.5945,0,0,2.5219,2.5289,2.5294,2.5374,2.5424,2.5487,2.5527,2.5534,2.559,2.5588,2.5622,2.5638,2.5716,2.5749,2.5714,2.5847,2.5826,2.5835,2.5823,2.5831,2.5836,2.5827,2.571,0,0,0,0,0,2.5223,2.5281,2.5284,2.5303,2.5409,2.5485,2.5499,2.5528,2.5512,2.5543,2.5581,2.5585,2.5737,2.5708,2.5727,2.5766,2.5917,2.5922,2.5927,2.5931,2.5939,2.5945,0,0,0,0,0,0,2.523,2.5253,2.5282,2.5348,2.5372,2.5483,2.5463,2.5473,2.551,2.5509,2.5578,2.5587,2.5614,2.57,2.5717,2.5753,2.5704,2.5919,2.5923,2.5927,2.5934,2.594,2.5946,0,0,0,0,0,2.5237,2.5255,2.5417,2.5347,2.5368,2.542,2.5461,2.5469,2.5498,2.5556,2.5566,2.5516,2.5614,2.5631,2.571,2.5744,2.5693,2.5699,2.5922,2.5925,2.5928,2.5937,0,0,0,0,0,0,2.5241,2.5264,2.5422,2.543,2.5327,2.5415,2.5429,2.5466,2.5544,2.5554,2.5496,2.5495,2.5615,2.5628,2.5641,2.574,2.5683,2.5689,2.5693,2.5924,2.5927,2.5929,0,0,0,0,0,0,2.5254,2.527,2.5426,2.5399,2.5404,2.5409,2.5422,2.5494,2.5544,2.5479,2.5481,2.5495,2.5597,2.5626,2.5636,2.5747,2.5676,2.5682,2.5686,2.5689,2.5926,2.5929,0,0,0,0,0,0,2.5261,2.5275,2.5397,2.5401,2.5405,2.5492,2.5473,2.5581,2.5519,2.5476,2.5514,2.5512,2.5595,2.5606,2.5633,2.5739,2.5745,2.5676,2.568,2.5683,2.5685,0,0,0,0,0,0,0,2.5267,2.5167,2.5377,2.5402,2.5406,2.55,2.5502,2.5504,2.5518,2.5517,2.5515,2.5513,2.5641,2.5648,2.5654,2.5733,0,0,2.5675,2.5678,0,0,0,0,0,0,0,0,2.5162,2.5166,2.5377,2.5379,2.5381,2.55,2.5502,2.5503,2.5518,2.5517,2.5515,2.5514,2.5643,2.5648,2.5654,0,0,0,0,0,0,0,0,0,0,0,0,0,0,0,2.5378,2.5379,0,2.55,2.5502,2.5503,2.5518,2.5517,2.5515,2.5514,2.5644,2.5649,2.5653,0,0,0,0,0,0,0,0,0,0,0,0,0,0,0,0,0,0,0,0,0,0,0,0,0,0,0,0,0,0,0,0,0,0,0,0,0,0,0,0,0,0,0,0,0,0,0,0,0,0,0,0,0,0,0,0,0,0,0,0,0,0,0,0,0,0,0,0,0]}]]]